This is the latest recevied weather packets stored in our database for station/object WY7EM. If no packets are shown the sender has not sent any weather packets the latest 10 day(s).
| Time | Temp. | Humidity | Pressure | Rain* | Wind** | Luminosity | Snow |
|---|---|---|---|---|---|---|---|
| 1777593015 | 23.33° C | 17% | 1010.7 hPa | 0 mm | - | 371 W/m² | - |
| 1777592709 | 23.33° C | 16% | 1010.6 hPa | 0 mm | - | 389 W/m² | - |
| 1777592405 | 22.78° C | 16% | 1010.7 hPa | 0 mm | - | 405 W/m² | - |
| 1777592100 | 22.78° C | 17% | 1010.7 hPa | 0 mm | - | 421 W/m² | - |
| 1777591798 | 22.78° C | 17% | 1010.6 hPa | 0 mm | - | 437 W/m² | - |
| 1777591494 | 22.78° C | 17% | 1010.8 hPa | 0 mm | - | 454 W/m² | - |
| 1777591190 | 23.33° C | 17% | 1010.8 hPa | 0 mm | - | 467 W/m² | - |
| 1777590884 | 22.78° C | 17% | 1010.8 hPa | 0 mm | - | 480 W/m² | - |
| 1777590582 | 22.22° C | 17% | 1010.8 hPa | 0 mm | - | 496 W/m² | - |
| 1777590277 | 22.22° C | 17% | 1011.1 hPa | 0 mm | - | 510 W/m² | - |
| 1777589975 | 22.78° C | 17% | 1011.2 hPa | 0 mm | - | 522 W/m² | - |
| 1777589671 | 22.78° C | 17% | 1011.2 hPa | 0 mm | - | 533 W/m² | - |
| 1777589369 | 23.33° C | 16% | 1011.2 hPa | 0 mm | - | 545 W/m² | - |
| 1777589066 | 23.33° C | 17% | 1011.3 hPa | 0 mm | - | 558 W/m² | - |
| 1777588762 | 23.33° C | 16% | 1011.4 hPa | 0 mm | - | 569 W/m² | - |
| 1777588458 | 22.78° C | 17% | 1011.5 hPa | 0 mm | - | 583 W/m² | - |
| 1777588153 | 22.78° C | 16% | 1011.8 hPa | 0 mm | - | 595 W/m² | - |
| 1777587850 | 22.78° C | 16% | 1011.6 hPa | 0 mm | - | 608 W/m² | - |
| 1777587550 | 22.78° C | 17% | 1012 hPa | 0 mm | - | 621 W/m² | - |
| 1777587245 | 22.22° C | 17% | 1011.9 hPa | 0 mm | - | 634 W/m² | - |
| 1777586941 | 22.22° C | 17% | 1012 hPa | 0 mm | - | 648 W/m² | - |
| 1777586636 | 23.33° C | 17% | 1012.1 hPa | 0 mm | - | 663 W/m² | - |
| 1777586332 | 22.78° C | 16% | 1012 hPa | 0 mm | - | 678 W/m² | - |
| 1777586031 | 22.22° C | 17% | 1012.1 hPa | 0 mm | - | 689 W/m² | - |
| 1777585731 | 22.78° C | 17% | 1012.3 hPa | 0 mm | - | 702 W/m² | - |
* Rain latest hour (hover to see other rain measurements)
** Current wind speed in m/s (hover to see current wind gust speed)